�������l�o���
Date,Time,MP-1(��Sv/h),MP-2(��Sv/h),MP-3(��Sv/h),MP-4(��Sv/h),MP-5(��Sv/h),MP-6(��Sv/h),MP-7(��Sv/h),MP-8(��Sv/h),����,����(m/s),���J
2023/06/19,00:00,0.532,0.798,0.487,0.956,0.684,0.325,0.565,0.532,�k,5.4,��
2023/06/19,00:10,0.535,0.798,0.486,0.957,0.686,0.324,0.566,0.532,�k,4.6,��
2023/06/19,00:20,0.532,0.799,0.486,0.955,0.685,0.324,0.564,0.532,�k,4.5,��
2023/06/19,00:30,0.533,0.796,0.487,0.958,0.687,0.324,0.564,0.531,�k,3.9,��
2023/06/19,00:40,0.531,0.797,0.487,0.957,0.687,0.324,0.566,0.532,�k,3.5,��
2023/06/19,00:50,0.531,0.798,0.488,0.959,0.689,0.324,0.566,0.530,�k,4.1,��
2023/06/19,01:00,0.533,0.797,0.486,0.958,0.684,0.324,0.565,0.532,�k�k��,4.2,��
2023/06/19,01:10,0.532,0.797,0.487,0.959,0.686,0.323,0.564,0.532,�k�k��,4.3,��
2023/06/19,01:20,0.532,0.799,0.488,0.956,0.686,0.325,0.564,0.533,�k�k��,4.2,��
2023/06/19,01:30,0.533,0.797,0.487,0.958,0.684,0.324,0.566,0.533,�k�k��,4.6,��
2023/06/19,01:40,0.533,0.798,0.487,0.956,0.685,0.325,0.564,0.533,�k�k��,3.6,��
2023/06/19,01:50,0.532,0.795,0.486,0.957,0.687,0.325,0.565,0.532,�k�k��,5.0,��
2023/06/19,02:00,0.532,0.797,0.486,0.957,0.686,0.324,0.565,0.532,�k�k��,4.9,��
2023/06/19,02:10,0.533,0.798,0.487,0.956,0.686,0.324,0.563,0.532,�k�k��,5.0,��
2023/06/19,02:20,0.533,0.798,0.486,0.959,0.684,0.323,0.564,0.534,�k�k��,5.1,��
2023/06/19,02:30,0.532,0.797,0.487,0.957,0.686,0.323,0.563,0.532,�k�k��,5.1,��
2023/06/19,02:40,0.533,0.798,0.487,0.956,0.684,0.324,0.564,0.533,�k�k��,5.0,��
2023/06/19,02:50,0.532,0.796,0.488,0.956,0.686,0.324,0.565,0.534,�k�k��,5.5,��
2023/06/19,03:00,0.532,0.798,0.486,0.956,0.685,0.323,0.564,0.533,�k�k��,4.9,��
2023/06/19,03:10,0.532,0.797,0.488,0.958,0.684,0.325,0.565,0.530,�k�k��,4.6,��
2023/06/19,03:20,0.531,0.798,0.487,0.957,0.686,0.323,0.565,0.531,�k�k��,5.7,��
2023/06/19,03:30,0.532,0.796,0.485,0.957,0.686,0.323,0.564,0.533,�k�k��,6.0,��
2023/06/19,03:40,0.532,0.796,0.487,0.959,0.687,0.322,0.566,0.530,�k�k��,4.8,��
2023/06/19,03:50,0.532,0.797,0.487,0.956,0.686,0.325,0.564,0.531,�k�k��,5.5,��
2023/06/19,04:00,0.532,0.796,0.487,0.957,0.684,0.323,0.563,0.532,�k�k��,5.1,��
2023/06/19,04:10,0.531,0.799,0.487,0.956,0.685,0.324,0.563,0.533,�k�k��,5.6,��
2023/06/19,04:20,0.532,0.796,0.486,0.958,0.685,0.323,0.564,0.532,�k�k��,5.3,��
2023/06/19,04:30,0.532,0.796,0.486,0.957,0.685,0.323,0.563,0.531,�k,5.8,��
2023/06/19,04:40,0.532,0.796,0.486,0.956,0.685,0.323,0.562,0.533,�k�k��,5.7,��
2023/06/19,04:50,0.530,0.796,0.487,0.958,0.684,0.324,0.562,0.532,�k,5.8,��
2023/06/19,05:00,0.529,0.797,0.487,0.959,0.687,0.323,0.562,0.532,�k,5.4,��
2023/06/19,05:10,0.533,0.796,0.488,0.957,0.684,0.323,0.562,0.532,�k,4.9,��
2023/06/19,05:20,0.531,0.796,0.487,0.958,0.684,0.322,0.561,0.532,�k�k��,5.4,��
2023/06/19,05:30,0.529,0.798,0.488,0.956,0.685,0.324,0.561,0.533,�k�k��,5.6,��
2023/06/19,05:40,0.530,0.797,0.486,0.956,0.686,0.323,0.562,0.532,�k�k��,5.4,��
2023/06/19,05:50,0.531,0.798,0.486,0.958,0.685,0.323,0.562,0.533,�k,5.4,��
2023/06/19,06:00,0.532,0.798,0.487,0.956,0.685,0.321,0.562,0.532,�k�k��,6.2,��
2023/06/19,06:10,0.530,0.797,0.486,0.956,0.685,0.322,0.563,0.531,�k,5.6,��
2023/06/19,06:20,0.532,0.795,0.487,0.958,0.685,0.322,0.564,0.533,�k,5.3,��
2023/06/19,06:30,0.531,0.797,0.486,0.958,0.685,0.323,0.560,0.531,�k�k��,5.3,��
2023/06/19,06:40,0.531,0.796,0.484,0.957,0.684,0.323,0.561,0.533,�k�k��,6.5,��
2023/06/19,06:50,0.529,0.795,0.487,0.958,0.684,0.321,0.561,0.532,�k,4.6,��
2023/06/19,07:00,0.529,0.795,0.485,0.958,0.684,0.322,0.561,0.531,�k,5.6,��
2023/06/19,07:10,0.529,0.795,0.485,0.957,0.684,0.322,0.562,0.531,�k�k��,5.1,��
2023/06/19,07:20,0.529,0.797,0.484,0.957,0.683,0.322,0.563,0.532,�k�k��,6.1,��
2023/06/19,07:30,0.530,0.795,0.486,0.956,0.686,0.322,0.562,0.531,�k�k��,7.8,��
2023/06/19,07:40,0.529,0.794,0.486,0.957,0.686,0.322,0.563,0.532,�k�k��,7.6,��
2023/06/19,07:50,0.531,0.796,0.486,0.956,0.685,0.324,0.561,0.531,�k�k��,6.7,��
2023/06/19,08:00,0.529,0.796,0.485,0.957,0.684,0.322,0.561,0.529,�k�k��,6.4,�L
2023/06/19,08:10,0.531,0.796,0.484,0.956,0.684,0.322,0.562,0.530,�k,6.2,�L
2023/06/19,08:20,0.531,0.794,0.484,0.958,0.683,0.322,0.560,0.530,�k,7.1,�L
2023/06/19,08:30,0.530,0.794,0.486,0.958,0.683,0.322,0.560,0.530,�k,6.2,�L
2023/06/19,08:40,0.530,0.794,0.485,0.959,0.686,0.322,0.560,0.531,�k,9.6,�L
2023/06/19,08:50,0.530,0.794,0.485,0.958,0.686,0.322,0.560,0.530,�k,8.7,�L
2023/06/19,09:00,0.531,0.794,0.484,0.955,0.684,0.321,0.560,0.529,�k,7.9,�L
2023/06/19,09:10,0.531,0.796,0.484,0.957,0.686,0.321,0.560,0.529,�k,8.3,��
2023/06/19,09:20,0.532,0.795,0.485,0.961,0.684,0.320,0.561,0.531,�k,8.3,��
2023/06/19,09:30,0.532,0.798,0.486,0.957,0.686,0.322,0.562,0.531,�k,7.5,��
2023/06/19,09:40,0.531,0.796,0.486,0.958,0.687,0.321,0.561,0.531,�k�k��,7.1,��
2023/06/19,09:50,0.532,0.796,0.484,0.957,0.685,0.321,0.562,0.531,�k�k��,6.3,��
2023/06/19,10:00,0.530,0.796,0.483,0.960,0.685,0.323,0.562,0.530,�k�k��,6.6,��
2023/06/19,10:10,0.531,0.797,0.485,0.957,0.686,0.323,0.561,0.529,�k�k��,6.1,��
2023/06/19,10:20,0.532,0.797,0.484,0.958,0.686,0.323,0.562,0.531,�k�k��,5.6,��
2023/06/19,10:30,0.533,0.796,0.485,0.959,0.683,0.324,0.561,0.532,�k�k��,5.5,��
2023/06/19,10:40,0.533,0.797,0.486,0.959,0.686,0.322,0.562,0.531,�k�k��,5.3,��
2023/06/19,10:50,0.532,0.799,0.485,0.958,0.687,0.322,0.562,0.532,�k�k��,5.4,��
2023/06/19,11:00,0.533,0.798,0.485,0.958,0.688,0.323,0.563,0.530,�k�k��,4.9,��
2023/06/19,11:10,0.532,0.799,0.486,0.956,0.687,0.321,0.563,0.531,�k�k��,5.4,��
2023/06/19,11:20,0.533,0.800,0.487,0.957,0.687,0.324,0.564,0.532,�k�k��,4.7,��
2023/06/19,11:30,0.534,0.800,0.487,0.958,0.688,0.324,0.563,0.530,�k��,5.0,��
2023/06/19,11:40,0.533,0.799,0.485,0.954,0.689,0.324,0.564,0.533,�k�k��,4.7,��
2023/06/19,11:50,0.534,0.801,0.486,0.957,0.688,0.324,0.565,0.531,�k��,4.7,��
2023/06/19,12:00,0.534,0.800,0.486,0.957,0.689,0.323,0.563,0.531,�k��,5.6,��
2023/06/19,12:10,0.535,0.800,0.487,0.957,0.690,0.324,0.562,0.532,�k��,5.7,��
2023/06/19,12:20,0.535,0.803,0.488,0.959,0.688,0.322,0.565,0.531,�k�k��,6.8,��
2023/06/19,12:30,0.535,0.802,0.486,0.958,0.689,0.324,0.563,0.533,�k�k��,6.9,��
2023/06/19,12:40,0.535,0.801,0.488,0.961,0.689,0.324,0.564,0.532,�k�k��,7.4,��
2023/06/19,12:50,0.534,0.801,0.486,0.960,0.687,0.324,0.563,0.533,�k�k��,7.5,��
2023/06/19,13:00,0.537,0.798,0.488,0.957,0.689,0.324,0.564,0.532,�k�k��,7.1,��
2023/06/19,13:10,0.537,0.799,0.488,0.958,0.689,0.324,0.565,0.532,�k�k��,7.7,��
2023/06/19,13:20,0.535,0.801,0.486,0.961,0.689,0.323,0.564,0.532,�k�k��,8.0,��
2023/06/19,13:30,0.534,0.803,0.486,0.957,0.690,0.324,0.564,0.532,�k�k��,8.1,��
2023/06/19,13:40,0.535,0.800,0.487,0.960,0.689,0.323,0.564,0.532,�k��,7.4,��
2023/06/19,13:50,0.536,0.801,0.486,0.959,0.691,0.323,0.565,0.532,�k�k��,6.8,��
2023/06/19,14:00,0.533,0.804,0.487,0.961,0.691,0.324,0.564,0.533,�k�k��,6.9,��
2023/06/19,14:10,0.534,0.802,0.487,0.961,0.693,0.323,0.564,0.533,�k��,5.8,��
2023/06/19,14:20,0.534,0.801,0.486,0.961,0.692,0.322,0.564,0.531,�k�k��,5.4,��
2023/06/19,14:30,0.536,0.803,0.488,0.960,0.693,0.324,0.563,0.532,�k�k��,4.8,��
2023/06/19,14:40,0.537,0.802,0.486,0.962,0.692,0.323,0.564,0.532,�k��,4.7,��
2023/06/19,14:50,0.536,0.802,0.488,0.961,0.691,0.323,0.565,0.532,�k�k��,4.1,��
2023/06/19,15:00,0.534,0.803,0.486,0.960,0.692,0.323,0.564,0.531,�k�k��,4.1,��
2023/06/19,15:10,0.536,0.802,0.488,0.960,0.691,0.323,0.564,0.533,�k��,4.6,��
2023/06/19,15:20,0.535,0.802,0.488,0.960,0.693,0.323,0.563,0.532,�k��,4.2,��
2023/06/19,15:30,0.535,0.803,0.488,0.962,0.690,0.323,0.564,0.533,�k��,4.6,��
2023/06/19,15:40,0.536,0.802,0.487,0.962,0.689,0.325,0.564,0.532,�k��,4.2,��
2023/06/19,15:50,0.535,0.802,0.487,0.964,0.692,0.323,0.564,0.533,�k��,4.5,��
2023/06/19,16:00,0.535,0.804,0.487,0.962,0.692,0.325,0.564,0.534,�k�k��,3.8,��
2023/06/19,16:10,0.535,0.803,0.487,0.962,0.692,0.323,0.563,0.534,�k�k��,3.9,��
2023/06/19,16:20,0.535,0.804,0.487,0.966,0.690,0.323,0.565,0.533,�k��,3.6,��
2023/06/19,16:30,0.535,0.803,0.488,0.961,0.691,0.322,0.564,0.531,�k�k��,4.0,��
2023/06/19,16:40,0.537,0.803,0.485,0.961,0.691,0.323,0.565,0.532,�k�k��,3.5,��
2023/06/19,16:50,0.536,0.803,0.486,0.961,0.691,0.323,0.566,0.533,�k��,4.1,��
2023/06/19,17:00,0.537,0.803,0.489,0.963,0.691,0.323,0.564,0.533,�k�k��,4.3,��
2023/06/19,17:10,0.536,0.801,0.486,0.963,0.691,0.323,0.564,0.532,�k�k��,3.3,��
2023/06/19,17:20,0.535,0.803,0.488,0.961,0.691,0.324,0.564,0.532,�k�k��,3.7,��
2023/06/19,17:30,0.536,0.803,0.487,0.964,0.692,0.324,0.564,0.534,�k��,2.6,��
2023/06/19,17:40,0.537,0.804,0.487,0.964,0.692,0.322,0.566,0.532,�k�k��,2.6,��
2023/06/19,17:50,0.535,0.805,0.486,0.966,0.691,0.324,0.564,0.533,�k�k��,3.4,��
2023/06/19,18:00,0.536,0.807,0.488,0.962,0.692,0.324,0.566,0.533,�k�k��,3.5,��
2023/06/19,18:10,0.535,0.806,0.488,0.964,0.692,0.322,0.566,0.534,�k��,2.0,��
2023/06/19,18:20,0.535,0.806,0.487,0.963,0.692,0.324,0.565,0.534,�k�k��,3.5,��
2023/06/19,18:30,0.536,0.807,0.487,0.964,0.691,0.323,0.564,0.533,�k��,2.8,��
2023/06/19,18:40,0.537,0.806,0.488,0.965,0.695,0.324,0.566,0.534,�k,2.6,��
2023/06/19,18:50,0.538,0.807,0.487,0.966,0.695,0.324,0.564,0.533,�k�k��,2.5,��
2023/06/19,19:00,0.537,0.807,0.487,0.965,0.694,0.323,0.563,0.534,�k�k��,1.9,��
2023/06/19,19:10,0.537,0.807,0.488,0.966,0.693,0.325,0.564,0.533,�k�k��,2.6,��
2023/06/19,19:20,0.536,0.807,0.489,0.966,0.693,0.324,0.566,0.533,�k��,3.5,��
2023/06/19,19:30,0.538,0.806,0.489,0.970,0.694,0.323,0.565,0.535,�k��,3.4,��
2023/06/19,19:40,0.537,0.804,0.487,0.967,0.693,0.326,0.568,0.533,�k�k��,3.0,��
2023/06/19,19:50,0.537,0.805,0.491,0.967,0.693,0.324,0.566,0.534,�k�k��,3.0,��
2023/06/19,20:00,0.537,0.808,0.490,0.968,0.695,0.325,0.566,0.535,�k�k��,2.5,��
2023/06/19,20:10,0.535,0.805,0.488,0.965,0.695,0.323,0.567,0.533,�k�k��,2.5,��
2023/06/19,20:20,0.538,0.805,0.489,0.965,0.695,0.326,0.568,0.534,�k�k��,2.3,��
2023/06/19,20:30,0.538,0.807,0.489,0.967,0.695,0.324,0.567,0.534,�k�k��,2.5,��
2023/06/19,20:40,0.538,0.805,0.489,0.967,0.696,0.324,0.567,0.533,�k,2.2,��
2023/06/19,20:50,0.536,0.806,0.490,0.967,0.696,0.324,0.567,0.533,�k�k��,2.3,��
2023/06/19,21:00,0.537,0.807,0.490,0.966,0.694,0.323,0.567,0.534,�k�k��,1.5,��
2023/06/19,21:10,0.537,0.804,0.488,0.967,0.695,0.323,0.567,0.534,�k��,3.6,��
2023/06/19,21:20,0.537,0.806,0.489,0.967,0.694,0.324,0.568,0.534,�k��,3.8,��
2023/06/19,21:30,0.539,0.806,0.490,0.966,0.695,0.324,0.568,0.534,�k��,3.3,��
2023/06/19,21:40,0.538,0.807,0.489,0.966,0.697,0.325,0.569,0.534,�k��,3.1,��
2023/06/19,21:50,0.535,0.807,0.490,0.966,0.694,0.323,0.567,0.535,�k�k��,3.2,��
2023/06/19,22:00,0.537,0.807,0.491,0.966,0.694,0.323,0.569,0.534,�k��,2.3,��
2023/06/19,22:10,0.538,0.808,0.489,0.968,0.694,0.324,0.568,0.533,�k��,2.3,��
2023/06/19,22:20,0.537,0.806,0.489,0.967,0.693,0.323,0.566,0.534,���k��,2.3,��
2023/06/19,22:30,0.538,0.806,0.488,0.966,0.695,0.324,0.567,0.533,�k��,2.0,��
2023/06/19,22:40,0.537,0.806,0.488,0.966,0.696,0.324,0.568,0.535,�k��,1.9,��
2023/06/19,22:50,0.537,0.807,0.488,0.966,0.694,0.325,0.568,0.533,�k��,2.3,��
2023/06/19,23:00,0.538,0.806,0.489,0.966,0.694,0.324,0.569,0.534,�k�k��,3.0,��
2023/06/19,23:10,0.537,0.806,0.488,0.965,0.694,0.325,0.568,0.534,�k��,2.6,��
2023/06/19,23:20,0.536,0.805,0.488,0.965,0.694,0.324,0.569,0.534,�k��,2.3,��
2023/06/19,23:30,0.536,0.805,0.489,0.966,0.695,0.324,0.565,0.533,�k��,0.9,��
2023/06/19,23:40,0.536,0.806,0.489,0.968,0.696,0.324,0.568,0.535,�k,1.2,��
2023/06/19,23:50,0.535,0.806,0.490,0.968,0.695,0.324,0.566,0.533,�k,1.4,��
